Regional Weather Roundup
Issued by NWS

Home | Current Version | Previous Version | Graphics & Text | Print | Product List | Glossary On
Versions: 1 2 3 4 5 6 7 8 9 10 11 12 13 14 15 16 17 18 19 20 21 22 23 24 25 26 27 28 29 30 31 32 33 34 35 36 37 38 39 40 41 42 43 44 45 46 47 48 49 50
000
ASUS43 KLOT 010000
RWRIL

ILLINOIS REGIONAL WEATHER ROUNDUP
NATIONAL WEATHER SERVICE CHICAGO/ROMEOVILLE IL
700 PM CDT TUE SEP 30 2014

NOTE: "FAIR" INDICATES FEW OR NO CLOUDS BELOW 12,000 FEET WITH NO
SIGNIFICANT WEATHER AND/OR OBSTRUCTIONS TO VISIBILITY.

* THESE STATIONS ARE NOT UNDER NWS QUALITY CONTROL. THEY ALSO MAY NOT
  REPORT WEATHER SUCH AS PRECIPITATION OR FOG.

ILZ001-002-007-009-015-016-024-010100-
NORTHWEST ILLINOIS

CITY           SKY/WX    TMP DP  RH WIND       PRES   REMARKS
MOLINE         NOT AVBL
$$

ILZ003-004-008-010-011-017-018-010100-
NORTH CENTRAL ILLINOIS

CITY           SKY/WX    TMP DP  RH WIND       PRES   REMARKS
ROCKFORD       MOCLDY    53  44  71 E7        30.03S
6HR MIN TEMP:  52; 6HR MAX TEMP:  61;

FREEPORT*      PTCLDY    50  44  80 NE5       30.01S
$$

ILZ005-006-012>014-019>023-010100-
NORTHEAST ILLINOIS

CITY           SKY/WX    TMP DP  RH WIND       PRES   REMARKS
CHICAGO-OHARE  DRIZZLE   52  50  93 NE6       30.01F
6HR MIN TEMP:  52; 6HR MAX TEMP:  58; 6HR PCP: TRACE;

CHICAGO-MIDWAY NOT AVBL
AURORA         CLOUDY    55  45  68 NE9       30.01F
6HR MIN TEMP:  55; 6HR MAX TEMP:  62;

LANSING*       CLOUDY    55  48  75 NE7       30.00F
WAUKEGAN       NOT AVBL
DUPAGE AIRPORT CLOUDY    54  46  74 NE7       30.01S
6HR MIN TEMP:  54; 6HR MAX TEMP:  59;

WHEELING       CLOUDY    54  49  83 N6        30.01F
6HR MIN TEMP:  54; 6HR MAX TEMP:  58;

NORTHERLY ISL    N/A     54  51  90 NE8         N/A
$$

LMZ740>746-010100-
SOUTHERN LAKE MICHIGAN

STATION/POSITION SKY/WX   TEMP    WIND        PRES    VSBY  WAVE
                          AIR SEA DIR/SP/G                  HT/PER
                          (F)     (DEG/KT/KT) (MB)    (MI)  (FT/S)
SOUTHERN BUOY              54 62   20/ 12/ 14 1016.6R         4/ 7
WAUKEGAN HARBOR            55      40/ 11/ 13   N/A
HARRISON CRIB              54      30/ 14/ 17   N/A
BURNHAM HARBOR             54      10/  8/ 14   N/A
CALUMET HARBOR             56      10/  9/ 12 1014.9F
MICHIGAN CITY              54      20/  8/ 11   N/A
MICHIGAN CITY 6N           55 64   80/  4/ 10   N/A           4/ 2
ST. JOSEPH                 55 62   80/  8/ 14   N/A           3/ 2
$$

ILZ025>027-034>036-040-047-049-050-058-095>099-010100-
WEST-CENTRAL ILLINOIS

CITY           SKY/WX    TMP DP  RH WIND       PRES   REMARKS
QUINCY         CLEAR     69  60  73 E6        29.89S
$$

ILZ028>032-037-038-041>044-048-051>054-059>061-010100-
CENTRAL ILLINOIS

CITY           SKY/WX    TMP DP  RH WIND       PRES   REMARKS
DECATUR        MOCLDY    65  56  72 NE9       29.94S
PEORIA         CLEAR     65  52  62 E6        29.95R
6HR MIN TEMP:  65; 6HR MAX TEMP:  71;

SPRINGFIELD    CLEAR     67  58  72 NE5       29.92S
6HR MIN TEMP:  67; 6HR MAX TEMP:  77;

TAYLORVILLE    NOT AVBL
$$

ILZ033-039-045-046-055>057-062-063-010100-
EAST-CENTRAL ILLINOIS

CITY           SKY/WX    TMP DP  RH WIND       PRES   REMARKS
MATTOON        PTCLDY    66  55  67 NE5       29.92S
$$

ILZ079-100>102-010100-
SOUTHWEST ILLINOIS

CITY           SKY/WX    TMP DP  RH WIND       PRES   REMARKS
ALTON          CLEAR     73  55  53 E6        29.89R
BELLEVILLE     CLEAR     76  61  59 E6        29.87S
CAHOKIA*       CLEAR     76  60  57 E6        29.87S
SPARTA*        CLEAR     74  58  59 CALM      29.89S HAZE
$$

ILZ064>066-069>071-074>076-080>082-084>086-088>090-092>094-010100-
SOUTH-CENTRAL ILLINOIS

CITY           SKY/WX    TMP DP  RH WIND       PRES   REMARKS
CARBONDALE     CLEAR     69  59  70 CALM      29.88S
6HR MIN TEMP:  69; 6HR MAX TEMP:  87;

$$

ILZ067-068-072-073-078-083-087-091-010100-
SOUTHEAST ILLINOIS

CITY           SKY/WX    TMP DP  RH WIND       PRES   REMARKS
LAWRENCEVILLE  CLEAR     68  61  78 NE7       29.92R
ROBINSON*      CLEAR     68  61  78 N6        29.93R
$$

ABBREVIATIONS USED IN REMARKS
   TC - TEMPERATURE IN CELSIUS
  WCI - WIND CHILL INDEX
   HX - HEAT INDEX
  VSB - VISIBILITY
$$



USA.gov is the U.S. government's official web portal to all federal, state and local government web resources and services.